TimeEDT,TemperatureF,Dew PointF,Humidity,Sea Level PressureIn,VisibilityMPH,Wind Direction,Wind SpeedMPH,Gust SpeedMPH,PrecipitationIn,Events,Conditions,WindDirDegrees,DateUTC
12:57 AM,62.1,52.0,70,30.26,10.0,North,6.9,-,N/A,,Clear,360,2013-09-18 04:57:00
1:57 AM,62.1,52.0,70,30.25,10.0,North,4.6,-,N/A,,Partly Cloudy,360,2013-09-18 05:57:00
2:57 AM,61.0,52.0,72,30.24,10.0,North,4.6,-,N/A,,Scattered Clouds,350,2013-09-18 06:57:00
3:57 AM,60.1,52.0,75,30.23,10.0,North,8.1,-,N/A,,Mostly Cloudy,350,2013-09-18 07:57:00
4:57 AM,59.0,52.0,78,30.23,10.0,North,9.2,-,N/A,,Overcast,360,2013-09-18 08:57:00
5:57 AM,59.0,52.0,78,30.23,10.0,North,10.4,-,N/A,,Scattered Clouds,350,2013-09-18 09:57:00
6:57 AM,57.9,52.0,81,30.24,10.0,North,9.2,-,N/A,,Partly Cloudy,350,2013-09-18 10:57:00
7:57 AM,60.1,53.1,78,30.25,10.0,North,9.2,-,N/A,,Clear,360,2013-09-18 11:57:00
8:57 AM,64.9,55.0,70,30.24,10.0,NNE,12.7,-,N/A,,Clear,20,2013-09-18 12:57:00
9:57 AM,71.1,57.0,61,30.25,10.0,NE,11.5,17.3,N/A,,Partly Cloudy,40,2013-09-18 13:57:00
10:57 AM,73.9,57.9,57,30.25,10.0,NE,11.5,-,N/A,,Partly Cloudy,50,2013-09-18 14:57:00
11:57 AM,75.9,57.9,54,30.24,10.0,NE,11.5,-,N/A,,Partly Cloudy,40,2013-09-18 15:57:00
12:57 PM,77.0,59.0,54,30.23,10.0,NE,9.2,-,N/A,,Clear,50,2013-09-18 16:57:00
1:57 PM,79.0,57.0,47,30.21,10.0,North,9.2,-,N/A,,Scattered Clouds,10,2013-09-18 17:57:00
2:57 PM,77.0,55.0,47,30.19,10.0,NE,6.9,-,N/A,,Mostly Cloudy,50,2013-09-18 18:57:00
3:57 PM,78.1,55.9,46,30.18,10.0,NNE,9.2,-,N/A,,Mostly Cloudy,30,2013-09-18 19:57:00
4:57 PM,79.0,55.9,45,30.17,10.0,NE,10.4,-,N/A,,Mostly Cloudy,40,2013-09-18 20:57:00
5:57 PM,75.9,55.0,48,30.17,10.0,NE,5.8,-,N/A,,Mostly Cloudy,50,2013-09-18 21:57:00
6:57 PM,73.0,55.0,53,30.18,10.0,ENE,6.9,-,N/A,,Mostly Cloudy,60,2013-09-18 22:57:00
7:57 PM,70.0,55.9,61,30.19,10.0,ENE,8.1,-,N/A,,Mostly Cloudy,60,2013-09-18 23:57:00
8:57 PM,68.0,55.0,63,30.20,10.0,ENE,5.8,-,N/A,,Clear,60,2013-09-19 00:57:00
9:57 PM,66.0,55.0,68,30.20,10.0,ENE,5.8,-,N/A,,Clear,60,2013-09-19 01:57:00
10:57 PM,66.0,54.0,65,30.20,10.0,NE,5.8,-,N/A,,Clear,40,2013-09-19 02:57:00
11:57 PM,63.0,54.0,72,30.20,10.0,NNE,4.6,-,N/A,,Clear,20,2013-09-19 03:57:00